Location: Jetmore Oil Field
(38.1181°N, 99.9337°W)
Time: 01:22:17
(UTC+00:00)

STARLINK-2704 - Pass Details

Date: 24 June 2021
Orbit: 546 x 548 km, 53.1° (Epoch: 23 July)

Event Time Altitude Azimuth Distance (km) Brightness Sun altitude
Exits shadow 08:14:11 15° 106° (ESE) 1,504 5.9 -24.8°
Drops below altitude 10° 08:15:42 10° 85° (E) 1,811 6.6 -24.7°
Enters shadow 09:14:16 -68° 230° (SW) 12,373 10.4 -18.9°
Maximum altitude 09:52:09 61° 321° (NW) 623 3.9 -14.1°
